| time (UTC) | temp C | wind direction | speed KPH | gust KPH | rain 1hr cm | rain 24hr cm | rain mn cm | humidity % | barometer mb |
| 20260508044026 | 18 | 11 | 6.4 | 12.9 | 0.00 | 0.00 | 0.00 | 42 | 1016.9 |
| 20260508043538 | 18 | 39 | 8.0 | 12.9 | 0.00 | 0.00 | 0.00 | 42 | 1017.0 |
| 20260508043030 | 18 | 58 | 4.8 | 11.3 | 0.00 | 0.00 | 0.00 | 43 | 1017.0 |
| 20260508042535 | 18 | 60 | 3.2 | 6.4 | 0.00 | 0.00 | 0.00 | 43 | 1016.8 |
| 20260508042105 | 18 | 69 | 1.6 | 4.8 | 0.00 | 0.00 | 0.00 | 46 | 1016.7 |
| 20260508041544 | 18 | 69 | 1.6 | 4.8 | 0.00 | 0.00 | 0.00 | 49 | 1016.6 |
| 20260508041052 | 17 | 69 | 3.2 | 8.0 | 0.00 | 0.00 | 0.00 | 53 | 1016.5 |
| 20260508040544 | 17 | 44 | 4.8 | 11.3 | 0.00 | 0.00 | 0.00 | 59 | 1016.3 |
| 20260508040043 | 17 | 89 | 6.4 | 11.3 | 0.00 | 0.00 | 0.00 | 60 | 1016.5 |
| 20260508035535 | 17 | 86 | 4.8 | 12.9 | 0.00 | 0.00 | 0.00 | 56 | 1016.5 |
| 20260508035038 | 18 | 84 | 4.8 | 12.9 | 0.00 | 0.00 | 0.00 | 49 | 1016.4 |
| 20260508034557 | 18 | 98 | 3.2 | 8.0 | 0.00 | 0.00 | 0.00 | 44 | 1016.4 |
| 20260508034031 | 18 | 298 | 3.2 | 6.4 | 0.00 | 0.00 | 0.00 | 43 | 1016.4 |
| 20260508033541 | 18 | 295 | 3.2 | 6.4 | 0.00 | 0.00 | 0.00 | 42 | 1016.3 |
| 20260508033104 | 18 | 314 | 1.6 | 8.0 | 0.00 | 0.00 | 0.00 | 39 | 1015.5 |
| 20260508032535 | 18 | 302 | 4.8 | 16.1 | 0.00 | 0.00 | 0.00 | 39 | 1015.0 |
| 20260508032045 | 18 | 298 | 4.8 | 16.1 | 0.00 | 0.00 | 0.00 | 38 | 1014.7 |
| 20260508031537 | 18 | 342 | 6.4 | 9.7 | 0.00 | 0.00 | 0.00 | 38 | 1014.5 |
| 20260508031026 | 18 | 355 | 1.6 | 6.4 | 0.00 | 0.00 | 0.00 | 38 | 1014.3 |
| 20260508030548 | 18 | 342 | 4.8 | 11.3 | 0.00 | 0.00 | 0.00 | 38 | 1014.3 |
| 20260508030039 | 18 | 322 | 6.4 | 11.3 | 0.00 | 0.00 | 0.00 | 38 | 1014.5 |
| 20260508025532 | 18 | 70 | 3.2 | 14.5 | 0.00 | 0.00 | 0.00 | 38 | 1014.6 |
| 20260508025038 | 18 | 335 | 4.8 | 14.5 | 0.00 | 0.00 | 0.00 | 39 | 1014.5 |
| 20260508024531 | 18 | 350 | 6.4 | 9.7 | 0.00 | 0.00 | 0.00 | 39 | 1014.5 |
| 20260508024045 | 18 | 15 | 6.4 | 9.7 | 0.00 | 0.00 | 0.00 | 40 | 1014.5 |
| 20260508023532 | 18 | 32 | 4.8 | 8.0 | 0.00 | 0.00 | 0.00 | 42 | 1014.6 |
| 20260508023041 | 17 | 342 | 3.2 | 6.4 | 0.00 | 0.00 | 0.00 | 44 | 1014.8 |
| 20260508022528 | 18 | 94 | 0.0 | 4.8 | 0.00 | 0.00 | 0.00 | 48 | 1014.8 |
| 20260508022032 | 18 | 54 | 3.2 | 11.3 | 0.00 | 0.00 | 0.00 | 40 | 1014.7 |
| 20260508021547 | 18 | 32 | 4.8 | 11.3 | 0.00 | 0.00 | 0.00 | 40 | 1014.7 |
| 20260508021059 | 18 | 15 | 4.8 | 9.7 | 0.00 | 0.00 | 0.00 | 41 | 1014.8 |
| 20260508020559 | 18 | 59 | 4.8 | 9.7 | 0.00 | 0.00 | 0.00 | 44 | 1014.9 |
| 20260508020031 | 17 | 52 | 4.8 | 14.5 | 0.00 | 0.00 | 0.00 | 47 | 1014.8 |
| 20260508015549 | 17 | 56 | 8.0 | 14.5 | 0.00 | 0.00 | 0.00 | 48 | 1014.9 |
| 20260508015053 | 17 | 150 | 1.6 | 4.8 | 0.00 | 0.00 | 0.00 | 55 | 1014.9 |
| 20260508014541 | 17 | 120 | 3.2 | 6.4 | 0.00 | 0.00 | 0.00 | 54 | 1014.9 |
| 20260508014051 | 17 | 105 | 3.2 | 8.0 | 0.00 | 0.00 | 0.00 | 53 | 1014.8 |
| 20260508013545 | 17 | 69 | 4.8 | 8.0 | 0.00 | 0.00 | 0.00 | 49 | 1014.8 |
| 20260508013034 | 18 | 106 | 4.8 | 12.9 | 0.00 | 0.00 | 0.00 | 41 | 1015.0 |
| 20260508012546 | 18 | 51 | 6.4 | 12.9 | 0.00 | 0.00 | 0.00 | 39 | 1015.1 |
| 20260508012043 | 18 | 36 | 1.6 | 11.3 | 0.00 | 0.00 | 0.00 | 40 | 1015.2 |
| 20260508011535 | 18 | 308 | 4.8 | 9.7 | 0.00 | 0.00 | 0.00 | 40 | 1015.2 |
| 20260508011028 | 18 | 13 | 3.2 | 8.0 | 0.00 | 0.00 | 0.00 | 41 | 1015.2 |
| 20260508010538 | 18 | 355 | 1.6 | 8.0 | 0.00 | 0.00 | 0.00 | 41 | 1015.2 |
| 20260508010034 | 18 | 355 | 3.2 | 8.0 | 0.00 | 0.00 | 0.00 | 41 | 1015.2 |
| 20260508005531 | 18 | 347 | 4.8 | 6.4 | 0.00 | 0.00 | 0.00 | 42 | 1015.3 |
| 20260508005047 | 18 | 24 | 1.6 | 11.3 | 0.00 | 0.00 | 0.00 | 42 | 1015.3 |
| 20260508004536 | 18 | 346 | 3.2 | 16.1 | 0.00 | 0.00 | 0.00 | 42 | 1015.3 |
| 20260508004028 | 18 | 347 | 4.8 | 12.9 | 0.00 | 0.00 | 0.00 | 42 | 1015.3 |
| 20260508003544 | 18 | 300 | 8.0 | 12.9 | 0.00 | 0.00 | 0.00 | 42 | 1015.3 |
| 20260508003034 | 18 | 61 | 4.8 | 11.3 | 0.00 | 0.00 | 0.00 | 43 | 1015.5 |
| 20260508002551 | 17 | 53 | 0.0 | 8.0 | 0.00 | 0.00 | 0.00 | 45 | 1015.5 |
| 20260508002046 | 18 | 53 | 3.2 | 9.7 | 0.00 | 0.00 | 0.00 | 45 | 1015.5 |
| 20260508001546 | 18 | 25 | 6.4 | 12.9 | 0.00 | 0.00 | 0.00 | 43 | 1015.4 |
| 20260508001038 | 18 | 28 | 8.0 | 12.9 | 0.00 | 0.00 | 0.00 | 42 | 1015.5 |
| 20260508000559 | 18 | 44 | 6.4 | 11.3 | 0.00 | 0.00 | 0.00 | 43 | 1015.6 |
| 20260508000032 | 18 | 53 | 4.8 | 12.9 | 0.00 | 0.00 | 0.00 | 43 | 1015.7 |
| 20260507235549 | 18 | 51 | 4.8 | 12.9 | 0.00 | 0.00 | 0.00 | 43 | 1015.8 |
| 20260507235039 | 18 | 51 | 1.6 | 11.3 | 0.00 | 0.00 | 0.00 | 43 | 1015.8 |
| 20260507234535 | 18 | 51 | 4.8 | 12.9 | 0.00 | 0.00 | 0.00 | 44 | 1015.8 |
| 20260507234038 | 18 | 360 | 8.0 | 14.5 | 0.00 | 0.00 | 0.00 | 45 | 1015.8 |
| 20260507233530 | 18 | 346 | 9.7 | 14.5 | 0.00 | 0.00 | 0.00 | 45 | 1015.9 |
| 20260507233034 | 18 | 36 | 9.7 | 16.1 | 0.00 | 0.00 | 0.00 | 45 | 1016.1 |
| 20260507232547 | 18 | 44 | 9.7 | 17.7 | 0.00 | 0.00 | 0.00 | 45 | 1016.2 |
| 20260507232032 | 18 | 29 | 8.0 | 17.7 | 0.00 | 0.00 | 0.00 | 45 | 1016.3 |
| 20260507231539 | 18 | 15 | 9.7 | 17.7 | 0.00 | 0.00 | 0.00 | 45 | 1016.4 |
| 20260507231033 | 18 | 5 | 11.3 | 17.7 | 0.00 | 0.00 | 0.00 | 46 | 1016.4 |
| 20260507230554 | 18 | 24 | 4.8 | 11.3 | 0.00 | 0.00 | 0.00 | 46 | 1016.6 |
| 20260507230104 | 17 | 46 | 4.8 | 12.9 | 0.00 | 0.00 | 0.00 | 48 | 1016.6 |
| 20260507225536 | 17 | 107 | 6.4 | 12.9 | 0.00 | 0.00 | 0.00 | 49 | 1016.8 |
| 20260507225043 | 17 | 102 | 4.8 | 12.9 | 0.00 | 0.00 | 0.00 | 49 | 1016.9 |
| 20260507224532 | 18 | 77 | 6.4 | 12.9 | 0.00 | 0.00 | 0.00 | 49 | 1017.0 |
| 20260507224029 | 17 | 57 | 4.8 | 12.9 | 0.00 | 0.00 | 0.00 | 49 | 1017.1 |
| 20260507223539 | 17 | 21 | 6.4 | 12.9 | 0.00 | 0.00 | 0.00 | 49 | 1017.1 |
| 20260507223029 | 17 | 360 | 3.2 | 9.7 | 0.00 | 0.00 | 0.00 | 49 | 1017.2 |
| 20260507222540 | 17 | 15 | 1.6 | 6.4 | 0.00 | 0.00 | 0.00 | 50 | 1017.3 |
| 20260507222031 | 17 | 19 | 3.2 | 6.4 | 0.00 | 0.00 | 0.00 | 51 | 1017.2 |
| 20260507221539 | 17 | 67 | 3.2 | 8.0 | 0.00 | 0.00 | 0.00 | 53 | 1017.2 |
| 20260507221033 | 17 | 59 | 4.8 | 9.7 | 0.00 | 0.00 | 0.00 | 55 | 1017.2 |
| 20260507220549 | 17 | 61 | 6.4 | 12.9 | 0.00 | 0.00 | 0.00 | 55 | 1017.3 |
| 20260507220042 | 17 | 66 | 8.0 | 11.3 | 0.00 | 0.00 | 0.00 | 55 | 1017.5 |
| 20260507215532 | 17 | 109 | 1.6 | 6.4 | 0.00 | 0.00 | 0.00 | 54 | 1017.6 |
| 20260507215040 | 18 | 109 | 4.8 | 6.4 | 0.00 | 0.00 | 0.00 | 52 | 1017.5 |
| 20260507214530 | 18 | 325 | 3.2 | 8.0 | 0.00 | 0.00 | 0.00 | 48 | 1017.5 |
| 20260507214035 | 18 | 325 | 4.8 | 11.3 | 0.00 | 0.00 | 0.00 | 46 | 1017.2 |
| 20260507213553 | 18 | 11 | 6.4 | 11.3 | 0.00 | 0.00 | 0.00 | 46 | 1017.1 |
| 20260507213046 | 18 | 5 | 6.4 | 9.7 | 0.00 | 0.00 | 0.00 | 47 | 1017.0 |
| 20260507212558 | 18 | 341 | 4.8 | 16.1 | 0.00 | 0.00 | 0.00 | 47 | 1016.9 |
| 20260507212032 | 19 | 25 | 6.4 | 16.1 | 0.00 | 0.00 | 0.00 | 47 | 1016.9 |
| 20260507211545 | 19 | 13 | 6.4 | 14.5 | 0.00 | 0.00 | 0.00 | 47 | 1017.0 |
| 20260507211030 | 18 | 26 | 4.8 | 14.5 | 0.00 | 0.00 | 0.00 | 47 | 1016.9 |
| 20260507210536 | 18 | 68 | 6.4 | 12.9 | 0.00 | 0.00 | 0.00 | 48 | 1017.1 |
| 20260507210047 | 18 | 27 | 6.4 | 14.5 | 0.00 | 0.00 | 0.00 | 48 | 1017.2 |
| 20260507205550 | 18 | 42 | 6.4 | 14.5 | 0.00 | 0.00 | 0.00 | 49 | 1017.4 |
| 20260507205032 | 18 | 350 | 3.2 | 8.0 | 0.00 | 0.00 | 0.00 | 49 | 1017.7 |
| 20260507204606 | 18 | 349 | 3.2 | 9.7 | 0.00 | 0.00 | 0.00 | 49 | 1017.7 |
| 20260507204030 | 18 | 21 | 4.8 | 9.7 | 0.00 | 0.00 | 0.00 | 49 | 1017.8 |
| 20260507203546 | 18 | 21 | 4.8 | 9.7 | 0.00 | 0.00 | 0.00 | 48 | 1017.8 |
| 20260507203032 | 19 | 13 | 4.8 | 9.7 | 0.00 | 0.00 | 0.00 | 48 | 1018.0 |
| 20260507202547 | 19 | 45 | 4.8 | 9.7 | 0.00 | 0.00 | 0.00 | 47 | 1018.0 |
| 20260507202038 | 18 | 11 | 4.8 | 8.0 | 0.00 | 0.00 | 0.00 | 47 | 1017.9 |
| 20260507201551 | 18 | 53 | 4.8 | 8.0 | 0.00 | 0.00 | 0.00 | 48 | 1017.9 |
| 20260507201038 | 18 | 341 | 3.2 | 4.8 | 0.00 | 0.00 | 0.00 | 47 | 1017.9 |
| 20260507200549 | 18 | 341 | 1.6 | 4.8 | 0.00 | 0.00 | 0.00 | 47 | 1017.9 |
| 20260507200036 | 18 | 341 | 1.6 | 6.4 | 0.00 | 0.00 | 0.00 | 48 | 1018.0 |
| 20260507195549 | 18 | 341 | 3.2 | 8.0 | 0.00 | 0.00 | 0.00 | 48 | 1018.0 |
| 20260507195039 | 18 | 5 | 3.2 | 8.0 | 0.00 | 0.00 | 0.00 | 48 | 1018.0 |
| 20260507194556 | 18 | 13 | 3.2 | 8.0 | 0.00 | 0.00 | 0.00 | 47 | 1017.9 |
| 20260507194034 | 18 | 12 | 4.8 | 6.4 | 0.00 | 0.00 | 0.00 | 47 | 1017.8 |
| 20260507193546 | 18 | 355 | 1.6 | 3.2 | 0.00 | 0.00 | 0.00 | 47 | 1017.9 |
| 20260507193046 | 18 | 355 | 0.0 | 4.8 | 0.00 | 0.00 | 0.00 | 47 | 1017.9 |
| 20260507192558 | 18 | 355 | 3.2 | 4.8 | 0.00 | 0.00 | 0.00 | 47 | 1017.8 |
| 20260507192029 | 18 | 355 | 0.0 | 4.8 | 0.00 | 0.00 | 0.00 | 47 | 1017.5 |
| 20260507191540 | 18 | 355 | 3.2 | 4.8 | 0.00 | 0.00 | 0.00 | 47 | 1017.5 |
| 20260507191029 | 18 | 355 | 1.6 | 4.8 | 0.00 | 0.00 | 0.00 | 48 | 1017.4 |
| 20260507190542 | 18 | 355 | 3.2 | 4.8 | 0.00 | 0.00 | 0.00 | 49 | 1017.3 |
| 20260507190106 | 18 | 355 | 1.6 | 4.8 | 0.00 | 0.00 | 0.00 | 49 | 1017.2 |
| 20260507185534 | 18 | 355 | 3.2 | 6.4 | 0.00 | 0.00 | 0.00 | 49 | 1017.2 |
| 20260507185048 | 19 | 355 | 1.6 | 6.4 | 0.00 | 0.00 | 0.00 | 49 | 1017.0 |
| 20260507184546 | 19 | 355 | 1.6 | 9.7 | 0.00 | 0.00 | 0.00 | 48 | 1017.0 |
| 20260507184038 | 19 | 355 | 4.8 | 4.8 | 0.00 | 0.00 | 0.00 | 49 | 1016.9 |
| 20260507183611 | 19 | 47 | 1.6 | 6.4 | 0.00 | 0.00 | 0.00 | 51 | 1016.7 |
| 20260507183033 | 18 | 46 | 4.8 | 8.0 | 0.00 | 0.00 | 0.00 | 52 | 1016.7 |
| 20260507182546 | 18 | 66 | 3.2 | 6.4 | 0.00 | 0.00 | 0.00 | 53 | 1016.7 |
| 20260507182043 | 18 | 38 | 3.2 | 6.4 | 0.00 | 0.00 | 0.00 | 53 | 1016.5 |
| 20260507181531 | 18 | 26 | 1.6 | 6.4 | 0.00 | 0.00 | 0.00 | 54 | 1016.7 |
| 20260507181038 | 19 | 22 | 3.2 | 6.4 | 0.00 | 0.00 | 0.00 | 54 | 1016.6 |
| 20260507180550 | 19 | 19 | 3.2 | 9.7 | 0.00 | 0.00 | 0.00 | 55 | 1016.5 |
| 20260507180027 | 20 | 52 | 4.8 | 9.7 | 0.00 | 0.00 | 0.00 | 51 | 1016.8 |
| 20260507175543 | 20 | 238 | 1.6 | 4.8 | 0.00 | 0.00 | 0.00 | 45 | 1017.0 |
| 20260507175101 | 20 | 238 | 3.2 | 4.8 | 0.00 | 0.00 | 0.00 | 46 | 1017.1 |
| 20260507174532 | 20 | 238 | 1.6 | 3.2 | 0.00 | 0.00 | 0.00 | 51 | 1017.0 |
| 20260507174027 | 20 | 238 | 0.0 | 4.8 | 0.00 | 0.00 | 0.00 | 47 | 1016.8 |
| 20260507173540 | 20 | 238 | 1.6 | 4.8 | 0.00 | 0.00 | 0.00 | 45 | 1016.8 |
| 20260507173042 | 20 | 238 | 1.6 | 4.8 | 0.00 | 0.00 | 0.00 | 45 | 1016.6 |
| 20260507172531 | 20 | 238 | 0.0 | 4.8 | 0.00 | 0.00 | 0.00 | 45 | 1016.6 |
| 20260507172100 | 20 | 238 | 1.6 | 8.0 | 0.00 | 0.00 | 0.00 | 46 | 1016.5 |
| 20260507171528 | 20 | 238 | 6.4 | 8.0 | 0.00 | 0.00 | 0.00 | 46 | 1016.6 |
| 20260507171042 | 20 | 241 | 4.8 | 8.0 | 0.00 | 0.00 | 0.00 | 47 | 1016.6 |
| 20260507170528 | 20 | 235 | 4.8 | 8.0 | 0.00 | 0.00 | 0.00 | 48 | 1016.7 |
| 20260507170045 | 20 | 250 | 4.8 | 8.0 | 0.00 | 0.00 | 0.00 | 46 | 1016.5 |
| 20260507165542 | 20 | 271 | 3.2 | 4.8 | 0.00 | 0.00 | 0.00 | 46 | 1016.4 |
| 20260507165042 | 20 | 355 | 3.2 | 4.8 | 0.00 | 0.00 | 0.00 | 46 | 1016.4 |
| 20260507164557 | 20 | 355 | 1.6 | 3.2 | 0.00 | 0.00 | 0.00 | 45 | 1016.4 |
| 20260507164059 | 20 | 355 | 0.0 | 4.8 | 0.00 | 0.00 | 0.00 | 45 | 1016.2 |
| 20260507163529 | 20 | 355 | 1.6 | 6.4 | 0.00 | 0.00 | 0.00 | 48 | 1016.2 |
| 20260507163055 | 20 | 355 | 3.2 | 6.4 | 0.00 | 0.00 | 0.00 | 50 | 1016.4 |
| 20260507162530 | 20 | 336 | 3.2 | 6.4 | 0.00 | 0.00 | 0.00 | 50 | 1016.3 |
| 20260507162044 | 20 | 296 | 1.6 | 8.0 | 0.00 | 0.00 | 0.00 | 51 | 1016.3 |
| 20260507161602 | 20 | 272 | 6.4 | 8.0 | 0.00 | 0.00 | 0.00 | 50 | 1016.2 |
| 20260507161030 | 20 | 284 | 4.8 | 12.9 | 0.00 | 0.00 | 0.00 | 50 | 1016.3 |
| 20260507160540 | 20 | 273 | 8.0 | 14.5 | 0.00 | 0.00 | 0.00 | 50 | 1016.4 |
| 20260507160034 | 20 | 241 | 9.7 | 16.1 | 0.00 | 0.00 | 0.00 | 49 | 1016.2 |
| 20260507155549 | 21 | 257 | 9.7 | 17.7 | 0.00 | 0.00 | 0.00 | 47 | 1016.3 |
| 20260507155041 | 22 | 257 | 8.0 | 12.9 | 0.00 | 0.00 | 0.00 | 39 | 1016.1 |
| 20260507154556 | 22 | 263 | 3.2 | 8.0 | 0.00 | 0.00 | 0.00 | 31 | 1016.0 |
| 20260507154027 | 22 | 68 | 3.2 | 4.8 | 0.00 | 0.00 | 0.00 | 32 | 1016.1 |
| 20260507153536 | 22 | 13 | 1.6 | 6.4 | 0.00 | 0.00 | 0.00 | 34 | 1016.1 |
| 20260507153028 | 22 | 349 | 3.2 | 6.4 | 0.00 | 0.00 | 0.00 | 35 | 1016.1 |
| 20260507152540 | 22 | 329 | 3.2 | 8.0 | 0.00 | 0.00 | 0.00 | 35 | 1016.1 |
| 20260507152107 | 22 | 349 | 3.2 | 8.0 | 0.00 | 0.00 | 0.00 | 35 | 1016.0 |
| 20260507151540 | 22 | 14 | 4.8 | 11.3 | 0.00 | 0.00 | 0.00 | 35 | 1016.0 |
| 20260507151106 | 22 | 63 | 4.8 | 11.3 | 0.00 | 0.00 | 0.00 | 37 | 1016.1 |
| 20260507150526 | 22 | 5 | 4.8 | 11.3 | 0.00 | 0.00 | 0.00 | 38 | 1016.1 |
| 20260507150039 | 22 | 46 | 4.8 | 11.3 | 0.00 | 0.00 | 0.00 | 39 | 1016.3 |
| 20260507145527 | 22 | 35 | 4.8 | 11.3 | 0.00 | 0.00 | 0.00 | 39 | 1016.5 |
| 20260507145046 | 22 | 28 | 6.4 | 9.7 | 0.00 | 0.00 | 0.00 | 40 | 1016.6 |
| 20260507144536 | 22 | 143 | 1.6 | 8.0 | 0.00 | 0.00 | 0.00 | 41 | 1016.7 |
| 20260507144042 | 22 | 123 | 4.8 | 8.0 | 0.00 | 0.00 | 0.00 | 39 | 1016.8 |
| 20260507143602 | 22 | 119 | 4.8 | 8.0 | 0.00 | 0.00 | 0.00 | 37 | 1016.8 |
| 20260507143027 | 22 | 159 | 3.2 | 9.7 | 0.00 | 0.00 | 0.00 | 37 | 1017.0 |
| 20260507142535 | 21 | 200 | 1.6 | 12.9 | 0.00 | 0.00 | 0.00 | 40 | 1017.1 |
| 20260507142029 | 21 | 194 | 8.0 | 12.9 | 0.00 | 0.00 | 0.00 | 42 | 1017.1 |
| 20260507141540 | 21 | 187 | 9.7 | 14.5 | 0.00 | 0.00 | 0.00 | 42 | 1017.1 |
| 20260507141046 | 21 | 196 | 8.0 | 14.5 | 0.00 | 0.00 | 0.00 | 43 | 1017.1 |
| 20260507140542 | 21 | 223 | 9.7 | 17.7 | 0.00 | 0.00 | 0.00 | 44 | 1017.0 |
| 20260507135533 | 21 | 211 | 9.7 | 17.7 | 0.00 | 0.00 | 0.00 | 45 | 1016.8 |
| 20260507135040 | 21 | 228 | 6.4 | 16.1 | 0.00 | 0.00 | 0.00 | 44 | 1016.7 |
| 20260507134530 | 21 | 192 | 11.3 | 16.1 | 0.00 | 0.00 | 0.00 | 43 | 1016.7 |
| 20260507134045 | 21 | 185 | 12.9 | 14.5 | 0.00 | 0.00 | 0.00 | 45 | 1016.5 |
| 20260507133532 | 21 | 224 | 6.4 | 14.5 | 0.00 | 0.00 | 0.00 | 46 | 1016.6 |
| 20260507133039 | 21 | 197 | 8.0 | 14.5 | 0.00 | 0.00 | 0.00 | 46 | 1016.4 |
| 20260507132528 | 21 | 215 | 8.0 | 16.1 | 0.00 | 0.00 | 0.00 | 47 | 1016.4 |
| 20260507132039 | 21 | 208 | 12.9 | 17.7 | 0.00 | 0.00 | 0.00 | 46 | 1016.5 |
| 20260507131529 | 21 | 263 | 8.0 | 20.9 | 0.00 | 0.00 | 0.00 | 48 | 1016.5 |
| 20260507131045 | 21 | 194 | 6.4 | 20.9 | 0.00 | 0.00 | 0.00 | 47 | 1016.5 |
| 20260507130532 | 21 | 155 | 12.9 | 20.9 | 0.00 | 0.00 | 0.00 | 44 | 1016.6 |
| 20260507130026 | 21 | 219 | 8.0 | 19.3 | 0.00 | 0.00 | 0.00 | 42 | 1016.6 |
| 20260507125539 | 22 | 183 | 9.7 | 19.3 | 0.00 | 0.00 | 0.00 | 39 | 1016.7 |
| 20260507125027 | 22 | 167 | 8.0 | 17.7 | 0.00 | 0.00 | 0.00 | 38 | 1016.9 |
| 20260507124539 | 21 | 156 | 11.3 | 17.7 | 0.00 | 0.00 | 0.00 | 40 | 1017.0 |
| 20260507124036 | 22 | 222 | 9.7 | 16.1 | 0.00 | 0.00 | 0.00 | 41 | 1017.0 |
| 20260507123552 | 22 | 158 | 6.4 | 16.1 | 0.00 | 0.00 | 0.00 | 39 | 1017.0 |
| 20260507123041 | 22 | 257 | 8.0 | 14.5 | 0.00 | 0.00 | 0.00 | 45 | 1016.9 |
| 20260507122555 | 22 | 193 | 9.7 | 16.1 | 0.00 | 0.00 | 0.00 | 44 | 1017.0 |
| 20260507122040 | 22 | 167 | 8.0 | 16.1 | 0.00 | 0.00 | 0.00 | 41 | 1017.1 |
| 20260507121533 | 22 | 167 | 4.8 | 14.5 | 0.00 | 0.00 | 0.00 | 44 | 1017.2 |
| 20260507121027 | 22 | 165 | 4.8 | 14.5 | 0.00 | 0.00 | 0.00 | 41 | 1017.3 |
| 20260507120541 | 22 | 192 | 8.0 | 12.9 | 0.00 | 0.00 | 0.00 | 43 | 1017.4 |
| 20260507120035 | 22 | 180 | 8.0 | 12.9 | 0.00 | 0.00 | 0.00 | 39 | 1017.3 |
| 20260507115538 | 23 | 210 | 4.8 | 9.7 | 0.00 | 0.00 | 0.00 | 37 | 1017.3 |
| 20260507115054 | 23 | 206 | 4.8 | 12.9 | 0.00 | 0.00 | 0.00 | 39 | 1017.3 |
| 20260507114542 | 23 | 215 | 6.4 | 12.9 | 0.00 | 0.00 | 0.00 | 38 | 1017.3 |
| 20260507114107 | 22 | 173 | 4.8 | 11.3 | 0.00 | 0.00 | 0.00 | 38 | 1017.3 |
| 20260507113537 | 23 | 147 | 3.2 | 8.0 | 0.00 | 0.00 | 0.00 | 41 | 1017.1 |
| 20260507113045 | 22 | 126 | 3.2 | 9.7 | 0.00 | 0.00 | 0.00 | 43 | 1017.1 |
| 20260507112531 | 22 | 175 | 4.8 | 12.9 | 0.00 | 0.00 | 0.00 | 42 | 1017.1 |
| 20260507112028 | 22 | 121 | 3.2 | 12.9 | 0.00 | 0.00 | 0.00 | 45 | 1017.1 |
| 20260507111541 | 22 | 136 | 3.2 | 12.9 | 0.00 | 0.00 | 0.00 | 46 | 1017.2 |
| 20260507111030 | 22 | 160 | 4.8 | 12.9 | 0.00 | 0.00 | 0.00 | 45 | 1017.3 |
| 20260507110539 | 21 | 90 | 4.8 | 11.3 | 0.00 | 0.00 | 0.00 | 46 | 1017.5 |
| 20260507110040 | 21 | 190 | 4.8 | 9.7 | 0.00 | 0.00 | 0.00 | 46 | 1017.6 |
| 20260507105629 | 22 | 138 | 1.6 | 11.3 | 0.00 | 0.00 | 0.00 | 47 | 1017.6 |
| 20260507105034 | 22 | 265 | 6.4 | 11.3 | 0.00 | 0.00 | 0.00 | 43 | 1017.5 |
| 20260507104547 | 22 | 168 | 4.8 | 8.0 | 0.00 | 0.00 | 0.00 | 43 | 1017.3 |
| 20260507104052 | 22 | 142 | 4.8 | 8.0 | 0.00 | 0.00 | 0.00 | 45 | 1017.3 |
| 20260507103545 | 22 | 111 | 3.2 | 8.0 | 0.00 | 0.00 | 0.00 | 47 | 1017.2 |
| 20260507103034 | 21 | 169 | 4.8 | 9.7 | 0.00 | 0.00 | 0.00 | 48 | 1017.3 |
| 20260507102547 | 21 | 163 | 3.2 | 8.0 | 0.00 | 0.00 | 0.00 | 50 | 1017.5 |
| 20260507102036 | 21 | 194 | 4.8 | 9.7 | 0.00 | 0.00 | 0.00 | 48 | 1017.4 |
| 20260507101550 | 21 | 225 | 4.8 | 12.9 | 0.00 | 0.00 | 0.00 | 46 | 1017.5 |
| 20260507101054 | 21 | 187 | 11.3 | 12.9 | 0.00 | 0.00 | 0.00 | 48 | 1017.5 |
| 20260507100547 | 21 | 166 | 6.4 | 11.3 | 0.00 | 0.00 | 0.00 | 51 | 1017.3 |
| 20260507100033 | 21 | 126 | 6.4 | 11.3 | 0.00 | 0.00 | 0.00 | 52 | 1017.3 |
| 20260507095539 | 21 | 218 | 3.2 | 9.7 | 0.00 | 0.00 | 0.00 | 49 | 1017.3 |
| 20260507095050 | 21 | 182 | 6.4 | 12.9 | 0.00 | 0.00 | 0.00 | 51 | 1017.3 |
| 20260507094536 | 22 | 188 | 3.2 | 11.3 | 0.00 | 0.00 | 0.00 | 53 | 1017.2 |
| 20260507094100 | 21 | 244 | 3.2 | 11.3 | 0.00 | 0.00 | 0.00 | 54 | 1017.0 |
| 20260507093535 | 21 | 173 | 3.2 | 11.3 | 0.00 | 0.00 | 0.00 | 54 | 1017.1 |
| 20260507093041 | 21 | 184 | 6.4 | 12.9 | 0.00 | 0.00 | 0.00 | 52 | 1017.1 |
| 20260507092531 | 21 | 168 | 6.4 | 12.9 | 0.00 | 0.00 | 0.00 | 52 | 1017.3 |
| 20260507092040 | 21 | 220 | 6.4 | 11.3 | 0.00 | 0.00 | 0.00 | 53 | 1017.6 |
| 20260507091548 | 20 | 177 | 6.4 | 11.3 | 0.00 | 0.00 | 0.00 | 54 | 1017.5 |
| 20260507091033 | 21 | 209 | 6.4 | 11.3 | 0.00 | 0.00 | 0.00 | 56 | 1017.6 |
| 20260507090540 | 21 | 145 | 4.8 | 11.3 | 0.00 | 0.00 | 0.00 | 55 | 1017.2 |
| 20260507090029 | 21 | 206 | 4.8 | 11.3 | 0.00 | 0.00 | 0.00 | 55 | 1017.2 |
| 20260507085526 | 21 | 234 | 4.8 | 8.0 | 0.00 | 0.00 | 0.00 | 56 | 1017.1 |
| 20260507085030 | 21 | 225 | 3.2 | 6.4 | 0.00 | 0.00 | 0.00 | 55 | 1017.1 |
| 20260507084547 | 21 | 142 | 3.2 | 9.7 | 0.00 | 0.00 | 0.00 | 54 | 1017.2 |
| 20260507084029 | 20 | 148 | 4.8 | 9.7 | 0.00 | 0.00 | 0.00 | 54 | 1017.1 |
| 20260507083539 | 21 | 196 | 4.8 | 8.0 | 0.00 | 0.00 | 0.00 | 53 | 1017.1 |
| 20260507083040 | 21 | 117 | 3.2 | 8.0 | 0.00 | 0.00 | 0.00 | 55 | 1017.1 |
| 20260507082556 | 20 | 153 | 1.6 | 8.0 | 0.00 | 0.00 | 0.00 | 58 | 1017.2 |
| 20260507082100 | 20 | 194 | 4.8 | 9.7 | 0.00 | 0.00 | 0.00 | 59 | 1017.2 |
| 20260507081533 | 19 | 197 | 4.8 | 11.3 | 0.00 | 0.00 | 0.00 | 59 | 1017.1 |
| 20260507081027 | 19 | 190 | 8.0 | 12.9 | 0.00 | 0.00 | 0.00 | 58 | 1017.2 |
| 20260507080536 | 20 | 202 | 6.4 | 11.3 | 0.00 | 0.00 | 0.00 | 57 | 1017.2 |
| 20260507080039 | 20 | 219 | 6.4 | 11.3 | 0.00 | 0.00 | 0.00 | 57 | 1017.0 |
| 20260507075557 | 20 | 211 | 8.0 | 11.3 | 0.00 | 0.00 | 0.00 | 56 | 1016.8 |
| 20260507075049 | 20 | 214 | 6.4 | 8.0 | 0.00 | 0.00 | 0.00 | 54 | 1016.7 |
| 20260507074544 | 20 | 220 | 4.8 | 8.0 | 0.00 | 0.00 | 0.00 | 54 | 1016.7 |
| 20260507074044 | 20 | 213 | 6.4 | 8.0 | 0.00 | 0.00 | 0.00 | 53 | 1016.6 |
| 20260507073529 | 20 | 207 | 4.8 | 8.0 | 0.00 | 0.00 | 0.00 | 54 | 1016.5 |
| 20260507073033 | 20 | 206 | 3.2 | 9.7 | 0.00 | 0.00 | 0.00 | 58 | 1016.6 |
| 20260507072539 | 20 | 213 | 6.4 | 9.7 | 0.00 | 0.00 | 0.00 | 60 | 1016.7 |
| 20260507072035 | 20 | 196 | 6.4 | 8.0 | 0.00 | 0.00 | 0.00 | 59 | 1016.7 |
| 20260507071530 | 20 | 200 | 4.8 | 8.0 | 0.00 | 0.00 | 0.00 | 61 | 1016.8 |
| 20260507071037 | 20 | 178 | 3.2 | 8.0 | 0.00 | 0.00 | 0.00 | 62 | 1016.8 |
| 20260507070548 | 20 | 160 | 3.2 | 6.4 | 0.00 | 0.00 | 0.00 | 63 | 1016.8 |
| 20260507070034 | 19 | 160 | 3.2 | 6.4 | 0.00 | 0.00 | 0.00 | 62 | 1016.8 |
| 20260507065539 | 19 | 160 | 3.2 | 8.0 | 0.00 | 0.00 | 0.00 | 63 | 1016.8 |
| 20260507065026 | 19 | 146 | 4.8 | 8.0 | 0.00 | 0.00 | 0.00 | 63 | 1016.8 |
| 20260507064544 | 19 | 65 | 6.4 | 8.0 | 0.00 | 0.00 | 0.00 | 63 | 1016.7 |
| 20260507064035 | 18 | 306 | 1.6 | 6.4 | 0.00 | 0.00 | 0.00 | 62 | 1016.8 |
| 20260507063550 | 18 | 313 | 3.2 | 6.4 | 0.00 | 0.00 | 0.00 | 63 | 1016.9 |
| 20260507063031 | 18 | 244 | 4.8 | 9.7 | 0.00 | 0.00 | 0.00 | 63 | 1016.9 |
| 20260507062535 | 19 | 257 | 4.8 | 9.7 | 0.00 | 0.00 | 0.00 | 61 | 1016.9 |
| 20260507062030 | 19 | 283 | 6.4 | 11.3 | 0.00 | 0.00 | 0.00 | 58 | 1016.8 |
| 20260507061538 | 19 | 267 | 8.0 | 11.3 | 0.00 | 0.00 | 0.00 | 53 | 1016.7 |
| 20260507061051 | 20 | 280 | 3.2 | 8.0 | 0.00 | 0.00 | 0.00 | 50 | 1016.5 |
| 20260507060546 | 19 | 331 | 3.2 | 4.8 | 0.00 | 0.00 | 0.00 | 45 | 1016.5 |
| 20260507060049 | 19 | 331 | 1.6 | 4.8 | 0.00 | 0.00 | 0.00 | 46 | 1016.3 |
| 20260507055535 | 19 | 331 | 3.2 | 6.4 | 0.00 | 0.00 | 0.00 | 46 | 1016.3 |
| 20260507055024 | 18 | 331 | 4.8 | 6.4 | 0.00 | 0.00 | 0.00 | 47 | 1016.3 |
| 20260507054534 | 18 | 44 | 0.0 | 3.2 | 0.00 | 0.00 | 0.00 | 51 | 1016.4 |
| 20260507054039 | 18 | 44 | 3.2 | 4.8 | 0.00 | 0.00 | 0.00 | 52 | 1016.4 |
| 20260507053543 | 18 | 44 | 3.2 | 4.8 | 0.00 | 0.00 | 0.00 | 53 | 1016.5 |
| 20260507053039 | 17 | 44 | 1.6 | 4.8 | 0.00 | 0.00 | 0.00 | 54 | 1016.5 |
| 20260507052532 | 17 | 44 | 1.6 | 6.4 | 0.00 | 0.00 | 0.00 | 54 | 1016.5 |
| 20260507052034 | 17 | 44 | 1.6 | 6.4 | 0.00 | 0.00 | 0.00 | 55 | 1016.6 |
| 20260507051545 | 17 | 44 | 3.2 | 3.2 | 0.00 | 0.00 | 0.00 | 55 | 1016.6 |
| 20260507051041 | 17 | 44 | 1.6 | 4.8 | 0.00 | 0.00 | 0.00 | 56 | 1016.7 |
| 20260507050530 | 17 | 44 | 3.2 | 4.8 | 0.00 | 0.00 | 0.00 | 57 | 1016.6 |
| 20260507050030 | 17 | 44 | 1.6 | 4.8 | 0.00 | 0.00 | 0.00 | 59 | 1016.6 |
| 20260507045604 | 16 | 44 | 3.2 | 4.8 | 0.00 | 0.00 | 0.00 | 60 | 1016.6 |
| 20260507045031 | 16 | 325 | 0.0 | 3.2 | 0.00 | 0.00 | 0.00 | 62 | 1016.6 |
| 20260507044538 | 16 | 325 | 1.6 | 3.2 | 0.00 | 0.00 | 0.00 | 62 | 1016.5 |